Home > Time Zones > World Clock > Weather > India > Theni > Past weeks

Flag for India Weather past 2 weeks in Theni, Tamil Nadu, India

Now
95 °F

Scattered clouds.


Feels Like: 97 °F
Forecast: 71 / 95 °F
Wind: 7 mph from South

Location: Coimbatore / Peelamedu

Current Time: Apr 28, 2015 at 4:05:20 PM

Latest Report: Apr 28, 2015 at 3:30 PM


Visibility: 5 mi

Pressure: 29.83 "Hg

Humidity: 36%

Dew point: 64 °F

Location of TheniLocation

Historic Weather in Theni — Graph

°F

Theni temperature yesterday

Maximum temperature yesterday: 93 °F (at 3:00 PM)
Minimum temperature yesterday: 75 °F (at 12:30 AM)
Average temperature yesterday: 83 °F

Past Weeks' High & Low Weather Summary

 TemperatureHumidityPressure
High97 °F (Apr 23, 3:00 PM)100% (Apr 16, 3:00 AM)30.04 "Hg (Apr 16, 3:00 AM)
Low70 °F (Apr 25, 3:30 AM)34% (Apr 24, 5:30 PM)29.74 "Hg (Apr 18, 3:00 PM)
Average83 °F67%29.90 "Hg
* Reported Apr 13 2:30 PM — Apr 28 3:00 PM, Theni, Weather by CustomWeather, © 2015

Note: Actual official high and low records may vary slightly from our data, if they occured in-between our weather recording intervals... More about our weather records

Advertising

Theni weather history for previous 24 hours

 ConditionsComfort  
Time TempWeatherWind HumidityBarometerVisibility
3:00 PM
Tue, Apr 28
95 °FScattered clouds.6 mph36%29.83 "Hg5 mi
2:30 PM93 °FScattered clouds.3 mph41%29.86 "Hg5 mi
2:00 PM91 °FScattered clouds.2 mph46%29.86 "Hg4 mi
1:30 PM91 °FScattered clouds.5 mph46%29.89 "Hg4 mi
1:00 PM91 °FScattered clouds.No wind46%29.92 "Hg4 mi
12:30 PM91 °FScattered clouds.No wind46%29.92 "Hg4 mi
12:00 PM91 °FPassing clouds.5 mph49%29.95 "Hg4 mi
11:30 AM90 °FPassing clouds.5 mph52%29.95 "Hg4 mi
11:00 AM90 °FHaze.No wind52%29.95 "Hg3 mi
10:30 AM88 °FHaze.No wind55%29.98 "Hg3 mi
10:00 AM88 °FHaze.No wind55%29.98 "Hg3 mi
9:00 AM84 °FHaze.No wind62%29.98 "Hg2 mi
8:00 AM77 °FFog.No wind83%29.98 "Hg2 mi
7:30 AM75 °FFog.No wind89%29.95 "Hg2 mi
6:00 AM75 °FHaze.No wind89%29.92 "Hg2 mi
4:30 AM77 °FPassing clouds.No wind83%29.92 "Hg4 mi
2:30 AM77 °FPassing clouds.No wind83%29.92 "Hg4 mi
1:30 AM79 °FPassing clouds.No wind74%29.95 "Hg4 mi
12:30 AM79 °FPassing clouds.No wind74%29.95 "Hg4 mi
11:30 PM
Mon, Apr 27
79 °FPassing clouds.No wind74%29.98 "Hg4 mi
11:00 PM81 °FPassing clouds.No wind66%29.98 "Hg4 mi
10:30 PM81 °FPassing clouds.No wind70%29.95 "Hg4 mi
10:00 PM81 °FPassing clouds.No wind66%29.98 "Hg4 mi
9:30 PM81 °FPassing clouds.No wind66%29.95 "Hg4 mi
9:00 PM81 °FPassing clouds.No wind62%29.95 "Hg4 mi
8:30 PM81 °FPassing clouds.No wind62%29.95 "Hg4 mi
8:00 PM82 °FPassing clouds.No wind62%29.95 "Hg4 mi
7:30 PM82 °FPassing clouds.No wind62%29.92 "Hg4 mi
7:00 PM82 °FScattered clouds.No wind58%29.92 "Hg4 mi
6:30 PM84 °FScattered clouds.8 mph55%29.92 "Hg4 mi
6:00 PM86 °FScattered clouds.8 mph59%29.89 "Hg4 mi
5:30 PM88 °FScattered clouds.12 mph55%29.89 "Hg4 mi
5:00 PM91 °FPassing clouds.9 mph41%29.86 "Hg4 mi
4:30 PM93 °FPassing clouds.7 mph39%29.86 "Hg4 mi
4:00 PM93 °FScattered clouds.5 mph39%29.86 "Hg4 mi
Weather by CustomWeather, © 2015

See weather overviewHow to use our weather pages